KF5CFW Weather Reports


time (UTC)temp
C
wind
direction
speed
KPH
gust
KPH
rain 1hr
cm
rain 24hr
cm
rain mn
cm
humidity
%
barometer
mb
20260831121511 26 139 0.0 1.6 0.00 0.00 0.00 48 1014.0
20260831120011 26 153 0.0 1.6 0.00 0.00 0.00 51 1013.7
20260831114507 26 151 0.0 1.6 0.00 0.00 0.00 53 1013.6
20260831113004 26 151 0.0 1.6 0.00 0.00 0.00 55 1013.4
20260831111503 26 150 0.0 0.0 0.00 0.00 0.00 56 1013.2
20260831110002 27 174 0.0 1.6 0.00 0.00 0.00 57 1013.1
20260831104602 27 148 0.0 0.0 0.00 0.00 0.00 58 1013.2
20260831103105 27 187 0.0 1.6 0.00 0.00 0.00 58 1013.2
20260831101558 27 225 0.0 1.6 0.00 0.00 0.00 59 1013.1
20260831100103 27 156 0.0 1.6 0.00 0.00 0.00 60 1013.0
20260831094559 27 150 0.0 0.0 0.00 0.00 0.00 60 1013.0
20260831093054 27 150 0.0 1.6 0.00 0.00 0.00 60 1013.0
20260831091600 27 148 0.0 0.0 0.00 0.00 0.00 60 1013.0
20260831090051 27 148 0.0 1.6 0.00 0.00 0.00 60 1012.9
20260831084549 28 148 0.0 1.6 0.00 0.00 0.00 59 1012.8
20260831083047 28 148 0.0 0.0 0.00 0.00 0.00 58 1012.8
20260831081545 28 156 0.0 1.6 0.00 0.00 0.00 57 1012.7
20260831080100 28 194 0.0 1.6 0.00 0.00 0.00 56 1012.7
20260831074542 28 240 0.0 1.6 0.00 0.00 0.00 55 1012.6
20260831073101 29 231 0.0 1.6 0.00 0.00 0.00 53 1012.6
20260831071547 29 150 0.0 1.6 0.00 0.00 0.00 52 1012.6
20260831070036 30 328 0.0 1.6 0.00 0.00 0.00 50 1012.6
20260831064534 30 152 0.0 1.6 0.00 0.00 0.00 49 1012.7
20260831063041 30 163 0.0 1.6 0.00 0.00 0.00 48 1012.6
20260831061533 30 153 0.0 1.6 0.00 0.00 0.00 48 1012.6
20260831060031 30 146 0.0 1.6 0.00 0.00 0.00 48 1012.7
20260831054530 30 132 0.0 0.0 0.00 0.00 0.00 48 1012.7
20260831053029 30 144 0.0 1.6 0.00 0.00 0.00 48 1012.7
20260831051532 30 140 0.0 0.0 0.00 0.00 0.00 47 1012.5
20260831050025 30 140 0.0 0.0 0.00 0.00 0.00 47 1012.5
20260831044524 31 139 0.0 0.0 0.00 0.00 0.00 47 1012.4
20260831043023 31 139 0.0 0.0 0.00 0.00 0.00 47 1012.4
20260831041523 31 139 0.0 0.0 0.00 0.00 0.00 46 1012.3
20260831040023 31 140 0.0 0.0 0.00 0.00 0.00 45 1012.3
20260831034527 32 140 0.0 0.0 0.00 0.00 0.00 44 1012.3
20260831033033 32 139 0.0 0.0 0.00 0.00 0.00 44 1012.1
20260831031521 32 130 0.0 0.0 0.00 0.00 0.00 43 1012.0
20260831030021 32 129 0.0 0.0 0.00 0.00 0.00 43 1011.9
20260831024527 32 130 0.0 0.0 0.00 0.00 0.00 42 1011.8
20260831023019 33 130 0.0 0.0 0.00 0.00 0.00 42 1011.5
20260831021535 33 130 0.0 0.0 0.00 0.00 0.00 41 1011.3
20260831020019 33 130 0.0 0.0 0.00 0.00 0.00 40 1011.1
20260831014519 34 129 0.0 1.6 0.00 0.00 0.00 39 1010.9
20260831013017 34 153 0.0 1.6 0.00 0.00 0.00 38 1010.8
20260831011534 35 152 0.0 0.0 0.00 0.00 0.00 36 1010.6
20260831010017 35 152 0.0 1.6 0.00 0.00 0.00 35 1010.5
20260831004515 35 148 0.0 1.6 0.00 0.00 0.00 34 1010.4
20260831003016 35 148 0.0 1.6 0.00 0.00 0.00 33 1010.4
20260831001523 36 158 0.0 1.6 0.00 0.00 0.00 31 1010.4
20260831000012 36 133 0.0 1.6 0.00 0.00 0.00 31 1010.5
20260830234519 37 135 0.0 1.6 0.00 0.00 0.00 30 1010.6
20260830233011 38 72 0.0 1.6 0.00 0.00 0.00 29 1010.6
20260830231512 38 144 0.0 1.6 0.00 0.00 0.00 29 1010.5
20260830230009 40 152 0.0 3.2 0.00 0.00 0.00 27 1010.6
20260830224507 40 127 0.0 1.6 0.00 0.00 0.00 25 1010.7
20260830223009 40 195 0.0 1.6 0.00 0.00 0.00 26 1010.8
20260830221506 40 148 0.0 3.2 0.00 0.00 0.00 26 1010.8
20260830220005 41 109 0.0 3.2 0.00 0.00 0.00 24 1010.9
20260830214503 41 162 0.0 3.2 0.00 0.00 0.00 25 1010.9
20260830213004 41 179 0.0 3.2 0.00 0.00 0.00 25 1011.0
20260830211501 41 141 0.0 4.8 0.00 0.00 0.00 25 1011.2
20260830210059 41 172 0.0 4.8 0.00 0.00 0.00 25 1011.4
20260830204600 40 176 0.0 3.2 0.00 0.00 0.00 27 1011.5
20260830203056 41 162 0.0 4.8 0.00 0.00 0.00 26 1011.8
20260830201552 41 152 0.0 3.2 0.00 0.00 0.00 26 1011.8
20260830200048 41 153 0.0 3.2 0.00 0.00 0.00 27 1012.1
20260830194554 40 153 0.0 4.8 0.00 0.00 0.00 27 1012.3
20260830193042 40 118 0.0 3.2 0.00 0.00 0.00 28 1012.6
20260830191537 40 159 0.0 3.2 0.00 0.00 0.00 27 1012.7
20260830190032 40 156 0.0 3.2 0.00 0.00 0.00 30 1012.9
20260830184526 40 46 0.0 1.6 0.00 0.00 0.00 29 1013.0
20260830183025 39 210 0.0 3.2 0.00 0.00 0.00 30 1013.3
20260830181517 39 187 0.0 3.2 0.00 0.00 0.00 30 1013.4
20260830180015 39 151 0.0 4.8 0.00 0.00 0.00 31 1013.7
20260830174512 39 139 0.0 4.8 0.00 0.00 0.00 32 1013.9
20260830173008 38 354 0.0 3.2 0.00 0.00 0.00 33 1014.2
20260830171505 38 201 0.0 3.2 0.00 0.00 0.00 33 1014.4
20260830170100 37 167 0.0 1.6 0.00 0.00 0.00 37 1014.6
20260830164556 37 249 0.0 4.8 0.00 0.00 0.00 38 1014.8
20260830163058 36 200 0.0 1.6 0.00 0.00 0.00 40 1015.0
20260830161605 35 231 0.0 3.2 0.00 0.00 0.00 43 1015.1
20260830160046 35 163 0.0 3.2 0.00 0.00 0.00 46 1015.1
20260830154541 33 156 0.0 3.2 0.00 0.00 0.00 49 1015.0
20260830153038 33 153 0.0 3.2 0.00 0.00 0.00 52 1015.0
20260830151542 32 273 0.0 1.6 0.00 0.00 0.00 54 1015.0
20260830150030 31 234 0.0 1.6 0.00 0.00 0.00 56 1015.1
20260830144534 31 152 0.0 1.6 0.00 0.00 0.00 57 1015.0
20260830143029 30 304 0.0 0.0 0.00 0.00 0.00 58 1015.0
20260830141524 29 298 0.0 0.0 0.00 0.00 0.00 59 1015.1
20260830140026 28 157 0.0 1.6 0.00 0.00 0.00 58 1015.1
20260830134521 28 158 0.0 0.0 0.00 0.00 0.00 56 1015.0
20260830133024 27 218 0.0 1.6 0.00 0.00 0.00 49 1014.9
20260830131520 26 188 0.0 0.0 0.00 0.00 0.00 42 1014.8
20260830130017 26 189 0.0 0.0 0.00 0.00 0.00 40 1014.7
20260830124527 26 188 0.0 0.0 0.00 0.00 0.00 39 1014.5
20260830123013 26 188 0.0 0.0 0.00 0.00 0.00 43 1014.3